SCP
0 0 0 0 0 0 0 0 0 0 0 0 0 0 0 0 0 0 0 0 0 0 0 0 0 0 0 0 0 0 0 0 0 0 0 0 0 1 0 0 -0 0 0
0 0 0 0 0 0 0 0 0 0 0 0 0 0 -0 0 0 0 0 0 -0 -0 -0 -0 0 0 0 0 0 0 0 0 0 0 0 0 0 0 0 0 0 -0 0
0 0 0 0 0 0 0 0 0 0 0 0 0 0 0 0 0 0 0 0 -0 -0 -0 0 0 -0 0 0 0 0 0 0 0 0 0 0 0 0 0 0 0 1 0
0 0 0 0 0 0 0 0 0 0 0 0 0 0 0 0 0 0 0 0 0 0 0 0 -0 0 0 0 0 0 0 0 0 0 0 0 0 0 0 1 1 1 0
0 0 0 0 0 0 0 0 0 0 0 0 0 0 0 0 0 0 0 -0 0 0 0 0 -0 -0 0 0 0 0 0 0 0 0 0 0 0 0 0 0 0 0 0
0 0 0 0 0 0 0 0 0 0 0 0 0 0 0 0 0 0 0 0 0 0 -0 0 -0 -0 0 -0 -0 0 0 0 0 0 0 0 0 0 0 0 0 0 0
0 0 0 0 0 0 0 0 0 0 0 0 0 0 0 0 0 0 0 0 0 0 -0 0 0 0 -0 -0 -0 -0 0 0 0 0 0 0 0 0 0 0 0 0 0
0 0 0 0 0 0 0 0 0 0 0 0 0 0 0 0 0 -0 0 0 0 0 0 0 0 0 -0 0 -0 0 0 0 0 0 0 0 0 0 0 0 0 0 0
0 0 0 0 0 0 0 0 0 0 0 0 0 0 0 0 0 0 0 0 -0 0 0 -0 0 -0 -0 -0 -0 -0 -0 0 0 0 0 0 0 -0 0 0 0 0 0
0 0 0 0 0 0 0 0 0 0 0 0 0 0 0 0 0 0 0 0 0 0 -0 -0 0 -0 -0 -0 0 0 0 0 0 0 0 0 0 0 0 0 0 0 0
0 0 0 0 0 0 0 0 0 0 0 0 0 0 0 0 0 0 0 0 0 -0 0 0 0 0 0 0 0 0 0 0 0 0 0 0 0 0 0 0 0 0 -0
0 0 0 0 0 0 0 0 0 0 0 0 0 0 0 0 0 0 0 0 0 0 0 0 0 0 0 0 0 0 0 0 0 0 0 0 0 0 0 0 0 0 0
0 0 0 0 0 0 0 0 0 -0 -0 0 -0 -0 -0 0 0 0 0 0 0 0 0 0 0 0 0 0 0 0 0 -0 0 0 0 0 0 0 0 0 0 0 0
0 0 0 0 0 0 0 0 0 -0 0 0 -0 0 0 0 0 0 0 0 0 0 0 0 0 0 0 -0 0 0 0 0 -0 0 0 0 0 0 0 0 0 0 0
0 0 0 0 0 0 0 0 0 0 0 0 0 -0 -0 0 0 0 0 0 0 0 0 0 0 0 0 0 0 0 0 0 0 0 0 0 0 0 0 0 0 0 0
0 0 0 0 0 0 0 0 0 0 -0 -0 0 0 0 0 0 0 0 0 0 0 0 0 0 0 0 0 0 0 0 0 0 0 0 0 0 0 0 0 0 0 0
0 0 0 0 0 0 0 0 0 -0 -0 0 -0 0 0 -0 0 0 -0 0 0 0 -0 -0 0 0 0 0 0 0 0 0 0 -0 0 0 -0 0 0 0 0 0 0
0 0 0 0 0 0 0 0 0 0 -0 0 -0 -0 0 0 0 0 0 0 0 0 -0 -0 -0 -0 0 0 0 0 0 0 0 0 0 0 0 -0 0 0 0 0 0
0 0 0 0 0 0 0 0 0 0 0 0 0 0 -0 0 -0 0 0 0 0 0 -0 -0 -0 0 -0 0 0 0 0 0 0 0 0 0 0 -0 -0 0 0 0 -0
0 0 0 0 0 0 0 0 0 0 0 0 0 0 0 0 -0 -0 0 -0 0 0 0 0 0 -0 0 -0 0 0 0 0 0 0 0 -0 -0 -0 -0 0 0 0 -0
0 0 0 0 0 0 0 0 -0 -0 0 -0 0 0 -0 -0 -0 -0 -0 0 0 0 0 0 0 0 0 -0 -0 -0 0 0 0 0 0 -0 -0 -0 -0 -0 -0 0 0
0 0 0 0 0 0 0 0 0 -0 0 0 -0 -0 -0 -0 -0 0 0 0 -0 -0 -0 0 0 -0 -0 -0 -0 0 -0 -0 -0 -0 -0 -0 0 0 0 -0 0 -0 0
0 0 0 0 0 0 0 0 0 0 -0 0 -0 -0 -0 -0 -0 0 0 0 -0 -0 0 -0 -0 -0 -0 -0 -0 -0 -0 -0 -0 -0 -0 -0 -0 -0 0 -0 0 0 0
0 0 0 0 0 0 0 0 0 0 -0 -0 -0 -0 -0 -0 -0 0 -0 0 0 0 -0 -0 0 0 -0 -0 0 0 -0 -0 -0 -0 -0 -0 -0 0 -0 0 0 0 0
0 0 0 0 0 0 0 0 0 0 0 -0 0 0 -0 -0 -0 0 0 0 -0 0 0 0 0 0 0 0 0 0 0 0 0 0 0 0 0 0 0 0 0 0 0
0 0 0 0 0 0 0 0 0 0 0 0 0 0 -0 0 0 -0 0 -0 -0 -0 0 0 0 0 0 0 0 0 0 0 0 0 0 0 0 0 0 0 0 0 0
Wind_Speed_500mb
9 4 4 7 11 15 17 24 27 32 32 30 30 29 29 27 24 30 26 45 37 30 29 30 34 33 30 29 29 27 31 27 31 31 34 35 42 37 33 38 44 40 36
17 8 9 8 10 13 19 23 27 32 28 27 30 33 26 24 18 29 33 30 27 28 29 29 30 28 32 31 32 27 28 30 31 27 26 32 34 34 39 38 35 44 39
16 13 10 8 10 14 17 23 25 27 26 31 28 31 26 20 30 24 27 31 26 30 28 28 28 30 31 28 30 27 26 26 23 25 23 16 15 25 32 31 34 38 49
9 4 8 2 5 11 17 21 22 32 22 31 28 30 28 28 23 24 27 30 30 28 32 26 24 19 19 20 22 20 20 20 20 21 24 26 21 11 13 20 17 19 28
6 6 6 4 7 13 20 20 20 26 27 25 27 25 27 23 23 27 28 31 30 33 28 28 27 23 19 19 17 18 19 19 16 16 13 13 18 22 15 19 24 30 39
10 10 8 3 11 16 21 23 17 28 30 25 23 23 25 24 23 23 22 31 30 36 31 28 34 26 25 22 20 19 16 15 9 11 6 4 9 14 18 18 32 28 32
11 10 6 8 14 20 23 23 19 23 25 24 25 25 25 22 23 24 23 27 27 34 35 28 36 38 38 26 19 11 12 10 8 5 7 8 3 1 6 19 29 25 33
9 10 4 9 17 22 21 21 21 23 26 27 27 23 23 20 20 18 21 22 23 26 30 32 32 33 40 29 26 16 17 18 21 17 11 11 12 1 16 30 19 16 20
5 4 4 11 20 22 20 19 18 22 21 23 26 25 28 25 24 20 21 21 20 18 25 27 28 31 32 28 31 26 23 27 25 30 26 22 22 31 24 26 13 8 3
7 4 8 15 20 21 17 13 15 18 20 20 23 22 23 24 25 20 19 23 23 21 21 22 23 23 26 31 26 31 27 24 24 24 20 17 17 25 26 17 8 1 7
2 7 7 16 20 21 15 11 17 18 17 19 22 24 23 21 18 20 16 18 23 20 18 22 19 20 19 22 22 21 22 24 25 23 21 20 20 19 15 12 10 8 16
11 9 18 20 19 21 12 18 15 15 15 17 22 26 28 19 14 15 18 21 20 18 19 17 13 19 19 18 19 23 21 20 19 17 16 16 12 13 13 9 12 8 8
10 20 22 21 15 14 13 14 14 12 13 16 21 26 28 24 19 19 19 19 21 16 18 13 17 17 19 21 22 18 20 18 19 18 15 10 12 12 11 12 14 10 9
16 17 16 15 12 9 10 13 13 9 12 17 20 23 24 23 24 20 21 23 19 20 15 13 11 12 14 9 14 23 24 23 22 22 21 18 15 15 20 15 14 8 8
21 22 20 18 13 6 9 12 9 10 14 14 18 17 19 18 15 15 14 17 21 21 18 24 21 15 13 14 15 24 18 20 21 21 22 27 29 25 16 18 9 8 6
23 22 19 15 11 5 8 11 9 11 13 13 14 13 15 14 12 12 18 16 11 15 19 20 19 19 14 18 16 17 17 15 11 13 17 19 20 21 22 20 20 21 21
21 21 18 14 11 10 9 12 11 12 13 14 14 12 14 13 15 12 11 15 12 10 12 16 17 17 17 16 16 15 15 15 18 19 15 18 12 16 11 14 14 18 20
21 20 18 15 10 12 12 13 13 13 11 10 11 11 11 12 14 12 15 16 14 7 14 12 13 11 12 12 14 17 18 13 10 11 11 9 10 10 17 15 17 14 19
19 18 18 16 15 14 15 16 15 16 12 9 7 7 12 11 11 13 11 16 14 10 8 5 6 5 8 6 5 6 12 9 8 8 7 10 11 15 16 14 18 13 16
17 16 19 18 17 19 17 18 18 19 12 11 9 9 14 13 16 19 12 10 11 15 7 9 8 12 6 8 5 4 11 7 10 12 10 5 14 14 11 12 14 14 16
21 20 21 22 21 21 20 21 21 23 16 13 15 15 15 14 15 26 21 12 11 13 12 14 15 12 12 15 11 8 5 9 11 15 1 8 14 12 16 18 15 17 14
23 21 21 25 24 22 23 25 26 24 20 18 19 20 16 16 15 25 27 14 10 14 16 12 10 15 16 16 14 16 15 9 10 5 8 13 19 16 17 11 23 11 9
24 24 23 24 24 24 26 28 26 27 27 24 25 22 20 20 20 19 23 22 21 9 13 11 11 10 12 14 18 20 21 20 18 16 19 21 22 19 17 18 20 9 14
32 25 26 25 27 26 29 27 26 28 29 30 24 23 27 21 18 22 26 18 21 17 14 13 11 10 11 10 9 10 13 14 13 21 18 19 19 12 9 14 17 14 15
47 36 30 32 27 24 28 30 28 25 30 34 28 24 27 24 24 26 27 21 18 16 18 15 12 12 10 16 21 19 12 16 18 24 20 23 22 18 17 15 16 16 16
44 45 44 41 30 30 27 30 29 28 32 34 32 26 30 22 22 25 29 27 19 24 18 19 18 13 20 22 25 22 20 19 21 22 19 20 20 19 18 17 17 16 18
Wind_Direction_500mb
149 126 101 31 19 19 6 354 348 341 352 350 346 340 335 331 329 332 330 328 327 326 313 304 293 297 301 298 290 276 279 273 267 272 268 257 254 238 233 245 217 228 224
153 159 85 23 20 10 360 352 348 345 351 351 347 337 327 334 337 331 330 335 331 330 316 304 296 289 284 284 276 282 273 276 266 271 274 267 257 233 224 238 220 215 212
126 120 85 17 8 360 358 352 349 347 347 349 347 347 356 341 341 339 342 338 340 341 335 319 303 293 290 282 284 291 284 280 275 271 260 267 240 229 221 213 208 212 218
146 102 126 43 356 360 353 349 348 350 347 348 355 354 352 346 339 339 339 354 335 345 350 345 340 314 302 284 294 302 297 291 286 279 269 245 263 234 191 205 200 199 191
122 121 141 95 15 1 355 350 353 347 347 353 353 357 351 347 342 349 347 337 350 356 356 354 346 342 334 326 320 326 313 305 291 295 291 266 250 266 244 180 169 173 169
123 130 121 69 0 355 354 351 355 341 350 354 342 353 351 349 345 343 348 345 353 356 357 9 13 9 346 322 319 321 335 321 302 314 282 320 242 248 245 193 171 151 153
152 171 147 10 353 355 357 357 2 356 346 339 337 334 338 354 346 341 336 344 348 344 354 7 11 9 2 359 348 324 338 347 313 313 88 118 113 339 22 183 162 156 162
146 112 49 5 1 355 358 354 357 352 359 348 350 350 351 349 339 339 348 347 345 346 354 358 358 0 9 27 13 36 62 35 83 94 78 69 83 3 108 145 109 137 165
74 104 9 351 358 355 356 353 356 347 355 356 4 3 357 354 352 347 360 344 342 351 341 358 357 7 23 39 57 70 72 67 80 79 78 74 71 58 104 106 100 40 73
89 55 345 349 355 353 354 12 346 357 349 1 354 356 353 358 357 7 352 345 347 359 350 359 357 18 30 48 63 48 47 50 54 60 56 72 76 60 71 78 96 209 225
126 345 342 345 345 347 355 29 348 351 346 355 349 343 343 356 5 359 3 354 353 346 4 8 4 20 27 41 32 37 35 35 44 55 58 53 68 94 88 76 75 74 55
342 357 327 351 1 339 1 357 349 344 344 352 347 349 343 341 349 1 9 358 339 3 34 5 29 27 32 31 29 32 27 32 42 47 52 61 67 59 64 49 61 79 85
342 325 345 352 352 342 358 343 342 340 337 344 356 357 359 14 27 15 16 16 1 23 43 17 17 25 23 26 29 22 45 38 54 54 56 75 85 75 89 81 63 78 85
333 334 322 339 346 343 356 337 336 329 332 346 348 3 21 16 34 34 31 25 26 32 39 32 20 28 31 20 48 45 48 46 49 56 51 63 76 90 75 57 49 63 74
337 333 335 330 326 2 343 331 328 320 334 342 354 8 20 23 33 33 33 36 34 35 31 37 53 52 27 44 94 79 53 59 61 64 60 72 75 82 81 63 53 23 18
342 333 327 324 317 315 315 312 311 318 330 343 354 351 16 12 21 11 0 13 40 44 39 43 42 48 45 68 88 85 76 59 60 77 78 49 52 61 54 41 34 34 34
336 328 323 316 303 294 295 296 293 298 317 328 335 337 344 346 339 340 353 353 358 22 60 53 53 48 63 65 60 56 61 65 52 49 42 60 56 27 19 353 12 5 0
332 327 320 313 298 289 286 288 285 294 308 300 333 347 346 347 343 339 339 330 337 3 55 53 56 47 46 61 69 67 57 56 48 36 40 31 12 352 3 360 359 350 345
322 318 310 300 294 284 284 282 278 280 290 278 315 325 336 335 353 350 333 329 327 327 28 347 359 16 353 28 44 23 74 40 5 24 352 354 343 325 334 344 347 333 331
306 297 298 288 283 279 279 278 275 270 270 277 274 311 350 333 328 342 319 323 324 308 316 298 285 297 291 297 319 329 354 346 330 326 250 297 340 329 345 337 329 321 313
302 297 294 280 278 284 276 279 278 265 260 258 264 281 298 314 324 329 323 307 317 314 315 281 277 272 270 279 267 269 288 312 327 6 48 10 351 335 333 331 329 324 329
307 287 277 280 275 276 269 271 272 263 258 257 262 267 285 289 307 317 333 321 290 305 299 291 280 272 236 281 277 261 261 270 271 327 333 330 335 327 332 335 332 339 15
296 297 296 288 278 266 270 271 269 260 253 256 259 264 268 279 296 301 309 306 284 307 317 313 305 277 257 274 291 282 259 258 263 270 289 298 307 320 341 325 355 26 349
295 290 288 286 284 265 262 275 267 260 251 257 260 261 265 272 286 287 295 306 314 295 298 301 314 293 264 255 258 295 306 293 288 279 294 295 315 305 314 320 332 337 303
297 290 281 279 278 274 263 267 269 258 252 259 260 260 263 260 278 278 293 291 293 289 295 297 290 294 277 229 254 283 254 244 256 258 269 277 280 284 285 282 291 296 297
314 304 289 279 274 273 267 265 265 259 255 259 259 256 261 280 268 285 289 279 300 274 282 274 262 262 259 279 273 267 264 268 272 270 270 268 270 273 276 279 285 293 297
Wind_Speed_850mb
9 4 4 7 11 15 17 24 27 32 32 30 30 29 29 27 24 30 26 45 37 30 29 30 34 33 30 29 29 27 31 27 31 31 34 35 42 37 33 38 44 40 36
17 8 9 8 10 13 19 23 27 32 28 27 30 33 26 24 18 29 33 30 27 28 29 29 30 28 32 31 32 27 28 30 31 27 26 32 34 34 39 38 35 44 39
16 13 10 8 10 14 17 23 25 27 26 31 28 31 26 20 30 24 27 31 26 30 28 28 28 30 31 28 30 27 26 26 23 25 23 16 15 25 32 31 34 38 49
9 4 8 2 5 11 17 21 22 32 22 31 28 30 28 28 23 24 27 30 30 28 32 26 24 19 19 20 22 20 20 20 20 21 24 26 21 11 13 20 17 19 28
6 6 6 4 7 13 20 20 20 26 27 25 27 25 27 23 23 27 28 31 30 33 28 28 27 23 19 19 17 18 19 19 16 16 13 13 18 22 15 19 24 30 39
10 10 8 3 11 16 21 23 17 28 30 25 23 23 25 24 23 23 22 31 30 36 31 28 34 26 25 22 20 19 16 15 9 11 6 4 9 14 18 18 32 28 32
11 10 6 8 14 20 23 23 19 23 25 24 25 25 25 22 23 24 23 27 27 34 35 28 36 38 38 26 19 11 12 10 8 5 7 8 3 1 6 19 29 25 33
9 10 4 9 17 22 21 21 21 23 26 27 27 23 23 20 20 18 21 22 23 26 30 32 32 33 40 29 26 16 17 18 21 17 11 11 12 1 16 30 19 16 20
5 4 4 11 20 22 20 19 18 22 21 23 26 25 28 25 24 20 21 21 20 18 25 27 28 31 32 28 31 26 23 27 25 30 26 22 22 31 24 26 13 8 3
7 4 8 15 20 21 17 13 15 18 20 20 23 22 23 24 25 20 19 23 23 21 21 22 23 23 26 31 26 31 27 24 24 24 20 17 17 25 26 17 8 1 7
2 7 7 16 20 21 15 11 17 18 17 19 22 24 23 21 18 20 16 18 23 20 18 22 19 20 19 22 22 21 22 24 25 23 21 20 20 19 15 12 10 8 16
11 9 18 20 19 21 12 18 15 15 15 17 22 26 28 19 14 15 18 21 20 18 19 17 13 19 19 18 19 23 21 20 19 17 16 16 12 13 13 9 12 8 8
10 20 22 21 15 14 13 14 14 12 13 16 21 26 28 24 19 19 19 19 21 16 18 13 17 17 19 21 22 18 20 18 19 18 15 10 12 12 11 12 14 10 9
16 17 16 15 12 9 10 13 13 9 12 17 20 23 24 23 24 20 21 23 19 20 15 13 11 12 14 9 14 23 24 23 22 22 21 18 15 15 20 15 14 8 8
21 22 20 18 13 6 9 12 9 10 14 14 18 17 19 18 15 15 14 17 21 21 18 24 21 15 13 14 15 24 18 20 21 21 22 27 29 25 16 18 9 8 6
23 22 19 15 11 5 8 11 9 11 13 13 14 13 15 14 12 12 18 16 11 15 19 20 19 19 14 18 16 17 17 15 11 13 17 19 20 21 22 20 20 21 21
21 21 18 14 11 10 9 12 11 12 13 14 14 12 14 13 15 12 11 15 12 10 12 16 17 17 17 16 16 15 15 15 18 19 15 18 12 16 11 14 14 18 20
21 20 18 15 10 12 12 13 13 13 11 10 11 11 11 12 14 12 15 16 14 7 14 12 13 11 12 12 14 17 18 13 10 11 11 9 10 10 17 15 17 14 19
19 18 18 16 15 14 15 16 15 16 12 9 7 7 12 11 11 13 11 16 14 10 8 5 6 5 8 6 5 6 12 9 8 8 7 10 11 15 16 14 18 13 16
17 16 19 18 17 19 17 18 18 19 12 11 9 9 14 13 16 19 12 10 11 15 7 9 8 12 6 8 5 4 11 7 10 12 10 5 14 14 11 12 14 14 16
21 20 21 22 21 21 20 21 21 23 16 13 15 15 15 14 15 26 21 12 11 13 12 14 15 12 12 15 11 8 5 9 11 15 1 8 14 12 16 18 15 17 14
23 21 21 25 24 22 23 25 26 24 20 18 19 20 16 16 15 25 27 14 10 14 16 12 10 15 16 16 14 16 15 9 10 5 8 13 19 16 17 11 23 11 9
24 24 23 24 24 24 26 28 26 27 27 24 25 22 20 20 20 19 23 22 21 9 13 11 11 10 12 14 18 20 21 20 18 16 19 21 22 19 17 18 20 9 14
32 25 26 25 27 26 29 27 26 28 29 30 24 23 27 21 18 22 26 18 21 17 14 13 11 10 11 10 9 10 13 14 13 21 18 19 19 12 9 14 17 14 15
47 36 30 32 27 24 28 30 28 25 30 34 28 24 27 24 24 26 27 21 18 16 18 15 12 12 10 16 21 19 12 16 18 24 20 23 22 18 17 15 16 16 16
44 45 44 41 30 30 27 30 29 28 32 34 32 26 30 22 22 25 29 27 19 24 18 19 18 13 20 22 25 22 20 19 21 22 19 20 20 19 18 17 17 16 18
Wind_Direction_850mb
149 126 101 31 19 19 6 354 348 341 352 350 346 340 335 331 329 332 330 328 327 326 313 304 293 297 301 298 290 276 279 273 267 272 268 257 254 238 233 245 217 228 224
153 159 85 23 20 10 360 352 348 345 351 351 347 337 327 334 337 331 330 335 331 330 316 304 296 289 284 284 276 282 273 276 266 271 274 267 257 233 224 238 220 215 212
126 120 85 17 8 360 358 352 349 347 347 349 347 347 356 341 341 339 342 338 340 341 335 319 303 293 290 282 284 291 284 280 275 271 260 267 240 229 221 213 208 212 218
146 102 126 43 356 360 353 349 348 350 347 348 355 354 352 346 339 339 339 354 335 345 350 345 340 314 302 284 294 302 297 291 286 279 269 245 263 234 191 205 200 199 191
122 121 141 95 15 1 355 350 353 347 347 353 353 357 351 347 342 349 347 337 350 356 356 354 346 342 334 326 320 326 313 305 291 295 291 266 250 266 244 180 169 173 169
123 130 121 69 0 355 354 351 355 341 350 354 342 353 351 349 345 343 348 345 353 356 357 9 13 9 346 322 319 321 335 321 302 314 282 320 242 248 245 193 171 151 153
152 171 147 10 353 355 357 357 2 356 346 339 337 334 338 354 346 341 336 344 348 344 354 7 11 9 2 359 348 324 338 347 313 313 88 118 113 339 22 183 162 156 162
146 112 49 5 1 355 358 354 357 352 359 348 350 350 351 349 339 339 348 347 345 346 354 358 358 0 9 27 13 36 62 35 83 94 78 69 83 3 108 145 109 137 165
74 104 9 351 358 355 356 353 356 347 355 356 4 3 357 354 352 347 360 344 342 351 341 358 357 7 23 39 57 70 72 67 80 79 78 74 71 58 104 106 100 40 73
89 55 345 349 355 353 354 12 346 357 349 1 354 356 353 358 357 7 352 345 347 359 350 359 357 18 30 48 63 48 47 50 54 60 56 72 76 60 71 78 96 209 225
126 345 342 345 345 347 355 29 348 351 346 355 349 343 343 356 5 359 3 354 353 346 4 8 4 20 27 41 32 37 35 35 44 55 58 53 68 94 88 76 75 74 55
342 357 327 351 1 339 1 357 349 344 344 352 347 349 343 341 349 1 9 358 339 3 34 5 29 27 32 31 29 32 27 32 42 47 52 61 67 59 64 49 61 79 85
342 325 345 352 352 342 358 343 342 340 337 344 356 357 359 14 27 15 16 16 1 23 43 17 17 25 23 26 29 22 45 38 54 54 56 75 85 75 89 81 63 78 85
333 334 322 339 346 343 356 337 336 329 332 346 348 3 21 16 34 34 31 25 26 32 39 32 20 28 31 20 48 45 48 46 49 56 51 63 76 90 75 57 49 63 74
337 333 335 330 326 2 343 331 328 320 334 342 354 8 20 23 33 33 33 36 34 35 31 37 53 52 27 44 94 79 53 59 61 64 60 72 75 82 81 63 53 23 18
342 333 327 324 317 315 315 312 311 318 330 343 354 351 16 12 21 11 0 13 40 44 39 43 42 48 45 68 88 85 76 59 60 77 78 49 52 61 54 41 34 34 34
336 328 323 316 303 294 295 296 293 298 317 328 335 337 344 346 339 340 353 353 358 22 60 53 53 48 63 65 60 56 61 65 52 49 42 60 56 27 19 353 12 5 0
332 327 320 313 298 289 286 288 285 294 308 300 333 347 346 347 343 339 339 330 337 3 55 53 56 47 46 61 69 67 57 56 48 36 40 31 12 352 3 360 359 350 345
322 318 310 300 294 284 284 282 278 280 290 278 315 325 336 335 353 350 333 329 327 327 28 347 359 16 353 28 44 23 74 40 5 24 352 354 343 325 334 344 347 333 331
306 297 298 288 283 279 279 278 275 270 270 277 274 311 350 333 328 342 319 323 324 308 316 298 285 297 291 297 319 329 354 346 330 326 250 297 340 329 345 337 329 321 313
302 297 294 280 278 284 276 279 278 265 260 258 264 281 298 314 324 329 323 307 317 314 315 281 277 272 270 279 267 269 288 312 327 6 48 10 351 335 333 331 329 324 329
307 287 277 280 275 276 269 271 272 263 258 257 262 267 285 289 307 317 333 321 290 305 299 291 280 272 236 281 277 261 261 270 271 327 333 330 335 327 332 335 332 339 15
296 297 296 288 278 266 270 271 269 260 253 256 259 264 268 279 296 301 309 306 284 307 317 313 305 277 257 274 291 282 259 258 263 270 289 298 307 320 341 325 355 26 349
295 290 288 286 284 265 262 275 267 260 251 257 260 261 265 272 286 287 295 306 314 295 298 301 314 293 264 255 258 295 306 293 288 279 294 295 315 305 314 320 332 337 303
297 290 281 279 278 274 263 267 269 258 252 259 260 260 263 260 278 278 293 291 293 289 295 297 290 294 277 229 254 283 254 244 256 258 269 277 280 284 285 282 291 296 297
314 304 289 279 274 273 267 265 265 259 255 259 259 256 261 280 268 285 289 279 300 274 282 274 262 262 259 279 273 267 264 268 272 270 270 268 270 273 276 279 285 293 297